星链-5071 (STARLINK-5071 )

导读 | 豆包AI

STARLINK-5071是美国SpaceX公司星链(Starlink)星座的卫星,于2023年1月31日发射。星链计划旨在构建全球卫星互联网,该卫星部署在近地轨道,配备激光通信终端,可支持高速数据传输,为全球偏远地区、海洋等场景提供宽带互联网接入服务,是SpaceX大规模构建太空互联网基础设施的组成部分,支撑天地一体化网络覆盖。

基本信息
目录编号:
55402
目录名称:
STARLINK-5071
国际标识:
2023-014M
轨道中心:
EARTH
卫星名称:
星链-5071
卫星全名:
星链-5071 (STARLINK-5071 )
卫星状态:
在轨 (已飞行1185 天)
发射日期:
2023-01-31 UTC
国别 :
美国 (US)
星等 :
--
轨道信息
数据来源 国际轨道数据
星历时间: 2026-04-30T05:26:17+0800
19小时前
查看轨道信息
半长轴: 6950.196km
偏心率: 0.0002921
轨道倾角: 69.998°
近地点辐角 267.264°
升交点赤经 295.415°
平近点角 92.819°
近地点: 570.028km
远地点: 574.09km
周期: 96.107分钟
每日圈数: 14.983291
详细信息
固有亮度:
5
最大亮度:
2.5
卫星平台:
Starlink v1.5
覆盖范围:
全球
运营商:
太空探索技术公司
运营商所在国:
美国
制造商(研发单位):
太空探索技术公司
制造商所在国:
美国
使用方式:
暂无
卫星简介
星链(Starlink)计划是由太空探索技术公司(SpaceX)提出的一个巨型低轨卫星互联网星座项目,计划在2019年至2024年间在太空搭建由约1.2万颗卫星组成的“星链”网络,其中1584颗将部署在地球上空550千米处的近地轨道,并从2020年开始工作。该卫星仍在工作。
2D轨道图
3D轨道图
轨道高度分析图
轨道倾角分析图
轨道综合分析图
查看轨道综合分析图